Vorticity
10 8 17 16 15 12 12 9 8 7 6 5 5 4 3 4 4 5 4 3 3 3 3 2 4 5 6 9 7 9 8 9 11 10 14 10 8 7 6 4 5 5 8
13 11 17 15 15 15 13 10 8 6 5 5 5 4 4 4 4 3 3 3 2 3 4 4 5 5 6 10 9 7 9 10 9 11 12 10 9 10 11 11 9 9 5
10 10 11 13 14 17 16 11 9 7 5 4 4 4 2 2 3 4 5 5 4 3 3 2 4 5 5 7 8 8 8 9 10 9 7 14 10 7 9 9 8 7 9
11 12 9 10 11 14 17 13 9 7 5 5 4 3 3 5 5 4 4 4 5 5 4 4 4 3 6 9 8 9 8 8 10 11 9 9 6 10 11 8 8 7 6
15 16 12 8 9 11 15 17 12 8 6 5 4 4 5 4 5 5 5 5 5 6 6 4 4 5 8 9 9 9 9 7 6 8 9 9 11 10 7 13 13 10 8
5 14 10 9 8 9 12 13 18 14 8 6 4 3 3 4 5 5 6 6 4 4 4 4 3 4 10 9 7 7 7 7 7 7 8 8 7 9 10 8 5 24 6
15 18 11 11 14 14 12 10 11 15 13 9 6 5 4 4 4 4 5 5 5 7 3 3 3 10 19 9 8 7 5 4 5 6 5 7 9 9 9 10 9 7 14
13 14 10 5 3 4 6 8 10 13 20 18 9 5 4 5 5 7 6 6 6 1 1 2 16 21 11 5 7 9 9 6 2 6 6 6 7 7 7 8 7 9 6
2 3 5 1 1 -0 -1 -3 4 10 9 11 10 7 6 7 7 6 5 1 -3 -3 8 25 19 12 7 7 4 4 4 4 4 4 6 5 5 7 7 7 8 10 12
-8 14 8 0 1 2 2 7 10 9 12 13 12 9 5 3 2 3 5 4 4 16 21 9 5 6 4 2 4 6 8 9 9 9 9 9 8 3 6 7 5 8 8
19 10 -10 -4 11 12 13 14 11 8 10 8 3 9 10 7 5 3 5 14 24 13 3 6 5 5 8 10 10 9 8 8 8 7 7 5 6 5 3 5 7 6 8
-16 -14 48 33 19 12 10 10 8 8 5 3 4 8 11 14 15 17 15 13 9 10 8 9 10 9 9 7 6 6 7 7 5 4 6 5 6 7 7 8 9 9 8
38 20 4 11 12 9 8 8 5 6 10 13 10 7 5 5 9 9 11 10 9 9 7 6 7 7 7 6 6 8 8 9 9 9 8 8 9 9 11 10 9 10 9
8 4 7 5 3 5 7 6 4 3 5 8 9 11 11 16 18 18 15 10 8 9 7 6 6 6 6 7 8 9 9 8 9 9 9 9 9 9 7 7 9 9 10
7 10 9 7 7 10 10 12 10 9 10 12 17 16 10 7 6 6 6 7 8 8 8 8 9 12 14 14 13 11 12 13 11 11 10 10 9 10 11 8 8 9 10
9 5 13 15 16 17 14 10 13 15 17 15 9 10 9 6 5 6 6 7 9 9 10 10 10 10 10 10 9 8 8 8 8 9 10 9 8 9 9 10 12 11 10
12 17 14 15 14 13 14 13 9 6 5 4 4 2 5 8 12 13 13 10 5 5 7 9 9 9 10 9 9 8 8 8 9 11 11 10 11 12 11 10 13 10 11
13 13 10 9 10 9 5 6 7 6 6 8 11 13 14 12 8 5 6 9 11 12 10 9 13 18 16 11 10 12 11 11 14 13 13 14 15 15 16 9 12 11 9
8 6 4 6 3 4 12 9 9 10 9 12 12 9 6 5 6 9 14 16 13 11 13 15 19 17 16 19 21 21 21 21 21 21 19 18 18 19 16 16 13 12 10
8 8 9 7 4 7 8 10 10 8 8 9 9 6 5 9 15 15 14 14 17 20 22 23 22 22 23 23 24 25 25 23 23 21 21 18 17 17 17 18 20 19 18
5 5 4 6 8 9 8 2 9 7 11 8 5 4 9 15 15 15 18 20 21 18 17 17 18 18 17 17 18 19 21 21 21 21 20 20 19 19 18 17 16 15 14
7 10 11 8 8 8 8 10 8 10 9 6 5 7 15 16 16 20 20 17 14 13 14 14 13 13 12 12 13 12 14 15 13 13 14 17 18 18 14 16 17 15 16
6 6 8 9 9 8 11 10 9 10 8 5 5 12 16 17 18 17 13 12 12 12 12 11 11 12 13 13 13 12 13 15 16 16 16 14 15 17 17 17 18 18 14
10 11 10 11 11 15 10 6 7 11 8 5 7 13 17 19 17 13 12 11 10 11 11 11 13 14 15 18 18 19 18 11 6 3 7 14 15 16 16 19 13 16 16
9 9 10 7 8 8 9 10 11 10 8 5 8 14 17 19 15 12 12 10 11 11 11 13 12 13 14 14 13 11 11 11 12 13 11 12 8 8 8 2 10 14 14
11 10 11 11 10 11 9 8 10 10 8 7 10 13 18 18 13 11 12 10 11 12 14 14 13 14 12 12 12 10 12 13 14 17 14 14 14 15 13 10 9 3 9
Height
3087 3089 3090 3091 3093 3095 3097 3099 3102 3104 3107 3109 3111 3112 3112 3113 3113 3112 3111 3110 3108 3107 3105 3104 3103 3101 3100 3098 3096 3094 3092 3091 3092 3094 3092 3092 3091 3091 3091 3090 3091 3090 3090
3084 3085 3086 3087 3089 3091 3093 3095 3098 3101 3103 3105 3106 3108 3108 3108 3108 3107 3106 3105 3104 3102 3100 3099 3098 3096 3094 3092 3091 3089 3086 3084 3084 3084 3085 3085 3085 3085 3085 3084 3084 3082 3081
3081 3082 3084 3085 3086 3088 3090 3093 3095 3097 3099 3100 3101 3102 3103 3103 3103 3103 3102 3100 3099 3097 3095 3094 3092 3090 3089 3087 3085 3083 3081 3079 3077 3076 3075 3075 3077 3078 3078 3077 3076 3076 3074
3079 3080 3082 3083 3084 3085 3087 3090 3092 3094 3096 3097 3097 3097 3097 3097 3097 3096 3095 3094 3093 3091 3090 3088 3086 3085 3083 3082 3080 3078 3076 3074 3073 3070 3068 3066 3065 3067 3072 3072 3071 3070 3068
3079 3078 3079 3080 3081 3082 3084 3086 3088 3089 3090 3091 3091 3092 3091 3091 3090 3090 3088 3087 3086 3084 3083 3082 3080 3078 3076 3075 3074 3072 3069 3068 3066 3065 3063 3061 3057 3054 3054 3060 3064 3064 3061
3078 3077 3077 3078 3079 3080 3081 3083 3084 3085 3086 3086 3086 3085 3085 3084 3083 3083 3082 3081 3079 3078 3077 3076 3074 3072 3070 3069 3068 3066 3064 3062 3061 3059 3057 3056 3054 3050 3047 3046 3050 3057 3057
3074 3075 3075 3076 3077 3077 3078 3078 3078 3078 3078 3079 3079 3079 3078 3077 3076 3075 3074 3073 3072 3070 3068 3067 3066 3064 3063 3062 3060 3059 3057 3055 3054 3052 3050 3049 3046 3044 3042 3040 3038 3042 3052
3069 3071 3072 3072 3073 3073 3074 3074 3073 3072 3071 3072 3072 3072 3071 3070 3069 3068 3067 3065 3063 3062 3060 3058 3057 3055 3054 3052 3051 3050 3048 3047 3046 3045 3044 3042 3040 3038 3036 3034 3031 3030 3035
3067 3068 3069 3069 3069 3069 3069 3069 3068 3067 3067 3066 3065 3064 3063 3063 3061 3060 3058 3056 3054 3053 3051 3048 3047 3046 3045 3042 3041 3040 3039 3037 3036 3036 3035 3034 3032 3031 3029 3027 3025 3021 3020
3064 3064 3064 3065 3065 3064 3064 3063 3062 3060 3059 3058 3057 3057 3056 3055 3053 3051 3049 3046 3044 3042 3039 3038 3037 3036 3035 3033 3031 3030 3028 3026 3026 3025 3024 3024 3024 3022 3021 3020 3019 3017 3012
3060 3059 3058 3057 3058 3056 3056 3055 3053 3051 3050 3049 3049 3047 3046 3044 3043 3041 3038 3035 3034 3031 3030 3028 3026 3025 3024 3022 3020 3020 3019 3016 3015 3013 3011 3012 3012 3012 3011 3010 3010 3008 3007
3053 3054 3052 3049 3049 3048 3047 3046 3045 3044 3043 3041 3040 3038 3036 3033 3031 3029 3027 3025 3024 3023 3020 3019 3016 3015 3012 3010 3009 3008 3006 3004 3003 3003 3001 3000 2999 2999 2999 2999 3000 2998 2998
3044 3044 3044 3043 3043 3042 3042 3041 3039 3037 3035 3033 3031 3028 3026 3024 3022 3020 3018 3015 3013 3011 3010 3007 3004 3002 3001 2998 2996 2993 2992 2990 2989 2988 2987 2986 2985 2986 2986 2986 2985 2986 2986
3038 3038 3038 3037 3037 3036 3035 3033 3032 3030 3028 3025 3022 3019 3017 3014 3012 3009 3007 3004 3002 3000 2998 2994 2992 2989 2986 2984 2982 2979 2977 2976 2975 2974 2973 2972 2972 2971 2971 2971 2971 2972 2973
3034 3033 3032 3030 3029 3028 3027 3025 3022 3020 3017 3015 3013 3011 3008 3006 3003 3000 2997 2994 2991 2988 2984 2981 2977 2974 2971 2969 2965 2963 2961 2960 2959 2958 2958 2959 2958 2958 2956 2955 2957 2958 2959
3029 3026 3025 3024 3022 3020 3018 3016 3014 3012 3010 3007 3005 3003 3000 2997 2993 2989 2985 2982 2978 2974 2971 2968 2964 2961 2958 2954 2950 2947 2945 2944 2944 2945 2945 2945 2943 2942 2942 2942 2940 2942 2944
3023 3020 3018 3017 3015 3013 3012 3010 3008 3005 3002 2999 2996 2993 2989 2986 2982 2978 2974 2970 2966 2962 2958 2954 2949 2945 2942 2938 2935 2933 2928 2927 2928 2929 2929 2928 2928 2927 2927 2927 2926 2926 2928
3013 3013 3012 3010 3008 3006 3004 3002 3000 2997 2994 2991 2987 2983 2979 2975 2971 2966 2961 2956 2951 2946 2940 2935 2930 2926 2924 2920 2917 2914 2910 2909 2910 2910 2910 2910 2911 2911 2910 2910 2911 2913 2915
3008 3006 3005 3004 3002 3000 2997 2995 2991 2987 2984 2981 2977 2973 2968 2964 2959 2953 2947 2941 2935 2930 2925 2919 2914 2909 2906 2902 2899 2895 2892 2891 2891 2891 2891 2892 2893 2895 2896 2894 2896 2898 2903
3003 3002 3000 2997 2995 2992 2989 2986 2982 2979 2976 2972 2968 2963 2958 2952 2945 2938 2932 2926 2920 2915 2909 2904 2899 2895 2891 2887 2883 2880 2878 2876 2875 2875 2875 2875 2876 2878 2879 2880 2882 2885 2890
2996 2994 2992 2990 2987 2984 2982 2978 2974 2970 2967 2963 2958 2952 2946 2939 2932 2926 2919 2913 2908 2902 2897 2892 2888 2884 2880 2876 2872 2870 2867 2864 2862 2862 2863 2863 2864 2865 2865 2867 2868 2872 2875
2990 2988 2985 2982 2979 2976 2973 2970 2966 2962 2958 2953 2948 2942 2935 2927 2921 2914 2909 2904 2898 2894 2889 2884 2880 2877 2873 2869 2865 2862 2860 2858 2854 2853 2852 2852 2853 2854 2855 2856 2858 2860 2863
2983 2981 2979 2976 2972 2968 2964 2961 2957 2953 2949 2944 2938 2931 2924 2917 2910 2904 2900 2895 2890 2885 2881 2876 2871 2868 2865 2861 2858 2854 2852 2850 2848 2846 2845 2844 2844 2845 2845 2846 2848 2850 2851
2976 2973 2970 2967 2964 2960 2956 2952 2948 2944 2940 2935 2929 2921 2914 2908 2902 2897 2892 2887 2882 2878 2873 2868 2864 2859 2856 2853 2850 2847 2845 2843 2841 2839 2837 2836 2836 2836 2836 2837 2838 2839 2841
2967 2964 2961 2958 2956 2952 2948 2943 2939 2935 2931 2926 2919 2912 2906 2900 2895 2891 2886 2881 2876 2870 2865 2860 2855 2850 2847 2845 2842 2840 2837 2835 2833 2831 2830 2829 2828 2828 2828 2828 2829 2830 2831
2959 2957 2953 2950 2947 2944 2939 2935 2931 2926 2922 2917 2911 2904 2898 2893 2888 2883 2881 2877 2870 2865 2861 2855 2849 2845 2840 2837 2835 2833 2830 2827 2825 2823 2821 2819 2818 2818 2818 2819 2820 2821 2822